Location: Les Jeannots
(43.2262°N, 5.5774°E)
Time: 02:48:56
(UTC+00:00)

Cosmos 2341 Rocket - Pass Details

Date: 05 July 2020
Orbit: 968 x 1004 km, 82.9° (Epoch: 04 August)

Event Time Altitude Azimuth Distance (km) Brightness Sun altitude
Exits shadow 23:11:49 42° 213° (SSW) 1,367 4.4 -23.7°
Maximum altitude 23:13:57 67° 280° (W) 1,053 4.1 -23.8°
Drops below altitude 10° 23:20:09 10° 3° (N) 2,722 7.4 -23.9°
Sets 23:22:42 0° 6° (N) 3,671 8.4 -24.0°
